Погода в Новокулях

Россия / Республика Дагестан     43°09′49″N   46°31′20″E
темп.,
°C
ветер,
м/с
пор.,
м/с
влажн.,
%
обл.,
%
осадки,
мм/ч
давл.,
гПа
погр.,
м
28 февраля, вс
вс2800:00+6юз337456 0.0 101628
03:00+6юз117544 0.0 101522
06:00+5сз128167 0.0 101622
09:00+5зюз358682 0.1 1016261
12:00+6зсз3483100 0.1 1014400
15:00+6зсз2386100 0.1 1014350
18:00+5з3591100 0.3 1016274
21:00+5з2593100 0.8 1018265
1 марта, пн
пн100:00+4ссз3598100 1.6 1019248
03:00+3ссз2498100 3.9 1019248
06:00+2ссз2398100 2.3 1021212
09:00+1ссз2397100 3.5 1023198
12:00+2з2295100 0.9 1024205
15:00+2з2396100 1.3 1025230
18:00+2юз2394100 0.1 1026105
21:00+1юз238859 0.1 102829
2 марта, вт
вт200:00+1юз228321 0.0 102922
03:00+1зюз128256 0.0 102822
06:000юз228031 0.0 102922
09:00+4з226816 0.0 1029409
12:00+6ссз22580 0.0 1027940
15:00+7ссз21527 0.0 10251214
18:00+5сз116318 0.0 102522
21:00+3ююз23729 0.0 102531
3 марта, ср
ср300:00+2юз23720 0.0 102327
03:00+1юз227719 0.0 102229
06:00+2ююз1273100 0.0 102122
09:00+4сз2366100 0.0 1020588
12:00+6з236297 0.0 1019891
15:00+7з4105398 0.0 10181436
18:00+6зсз4861100 0.0 1019338
21:00+3з71189100 2.4 1023822
4 марта, чт
чт400:00+2з61096100 1.0 1024607
03:00+2з6995100 2.0 1025607
06:00+2з5890100 0.2 1027599
09:00+3зсз457697 0.2 1027703
12:00+5сз337090 0.0 1027797
15:00+7ссз125662 0.0 10261022
18:00+5всв126428 0.0 102624
21:00+3юв127514 0.0 102722